Weather History for Heraklion, Greece

Change the Weather History Date:

Wednesday, January 29, 2014

  Actual Average Record
Temperature  
Mean Temperature 57 °F -  
Max Temperature 64 °F 60 °F 64 °F (2014)
Min Temperature 50 °F 48 °F 50 °F (2014)
Degree Days  
Heating Degree Days 8    
Growing Degree Days 7 (Base 50)    
Moisture  
Dew Point 46 °F    
Average Humidity 67    
Maximum Humidity 88    
Minimum Humidity 44    
Precipitation  
Precipitation 0.00 in 0.10 in - ()
Sea Level Pressure  
Sea Level Pressure 29.81 in    
Wind  
Wind Speed 11 mph ()    
Max Wind Speed 23 mph    
Max Gust Speed -    
Visibility 6.4 miles    
Events Rain    
Averages and records for this station are not official NWS values.
T = Trace of Precipitation, MM = Missing Value Source: Averaged Metar Reports

Daily Weather History Graph

Daily Weather History Graph

Search for Another Location

Airport:

Trip Planner

Search our weather history database for the weather conditions in past years. The results will help you decide how hot, cold, wet, or windy it might be!

Date:

Astronomy

Jan. 29, 2014 Rise Set
Actual Time 7:21 AM EET 5:44 PM EET
Civil Twilight 6:54 AM EET 6:11 PM EET
Nautical Twilight 6:23 AM EET 6:41 PM EET
Astronomical Twilight 5:53 AM EET 7:11 PM EET
Moon 5:40 AM EET (1/29) 4:21 PM EET (1/29)
Length of Visible Light 11h 16m
Length of Day
10h 23m
Waning Crescent, 3% of the Moon is Illuminated
Jan 29
Waning Crescent
Jan 30
New
Feb 6
First Quarter
Feb 15
Full
Feb 22
Last Quarter

Hourly Weather History & Observations

Time (EET) Temp. Dew Point Humidity Pressure Visibility Wind Dir Wind Speed Gust Speed Precip Events Conditions
12:20 AM 57.2 °F 48.2 °F 72% 29.53 in 6.2 mi SSW 19.6 mph - N/A   Mostly Cloudy
12:50 AM 57.2 °F 48.2 °F 72% 29.53 in 6.2 mi South 23.0 mph - N/A   Mostly Cloudy
1:20 AM 57.2 °F 48.2 °F 72% 29.53 in 6.2 mi SSW 16.1 mph - N/A Rain Light Rain
1:50 AM 55.4 °F 51.8 °F 88% 29.56 in 6.2 mi SW 18.4 mph - N/A Rain Light Rain
2:00 AM 56 °F 51 °F 77% 29.57 in 9 mi SW 11.5 mph - - Rain Light Rain
2:20 AM 55.4 °F 51.8 °F 88% 29.56 in 6.2 mi NNW 12.7 mph - N/A   Scattered Clouds
2:50 AM 53.6 °F 46.4 °F 77% 29.56 in 6.2 mi SW 11.5 mph - N/A   Scattered Clouds
3:20 AM 53.6 °F 46.4 °F 77% 29.56 in 6.2 mi SW 6.9 mph - N/A   Scattered Clouds
3:50 AM 53.6 °F 46.4 °F 77% 29.62 in 6.2 mi WSW 5.8 mph - N/A   Partly Cloudy
4:20 AM 53.6 °F 46.4 °F 77% 29.62 in 6.2 mi West 11.5 mph - N/A   Partly Cloudy
4:50 AM 55.4 °F 44.6 °F 67% 29.62 in 6.2 mi North 11.5 mph - N/A   Partly Cloudy
5:00 AM 55 °F 44 °F 56% 29.65 in 9 mi North 11.5 mph - -   Scattered Clouds
5:20 AM 55.4 °F 44.6 °F 67% 29.62 in 6.2 mi West 5.8 mph - N/A   Partly Cloudy
5:50 AM 53.6 °F 42.8 °F 67% 29.68 in 6.2 mi South 5.8 mph - N/A   Partly Cloudy
6:20 AM 53.6 °F 42.8 °F 67% 29.68 in 6.2 mi SSW 6.9 mph - N/A   Partly Cloudy
6:50 AM 53.6 °F 41.0 °F 62% 29.71 in 6.2 mi Variable 2.3 mph - N/A   Partly Cloudy
7:20 AM 53.6 °F 41.0 °F 62% 29.71 in 6.2 mi Variable 3.5 mph - N/A   Partly Cloudy
7:50 AM 51.8 °F 39.2 °F 62% 29.74 in 6.2 mi South 4.6 mph - N/A   Scattered Clouds
8:00 AM 53 °F 40 °F 50% 29.76 in 6 mi South 4.6 mph - -   Partly Cloudy
8:20 AM 53.6 °F 39.2 °F 58% 29.74 in 6.2 mi South 4.6 mph - N/A   Scattered Clouds
8:50 AM 57.2 °F 44.6 °F 63% 29.80 in 6.2 mi South 6.9 mph - N/A   Scattered Clouds
9:20 AM 57.2 °F 44.6 °F 63% 29.80 in 6.2 mi SSE 9.2 mph - N/A   Scattered Clouds
9:50 AM 59.0 °F 42.8 °F 55% 29.83 in 6.2 mi SSE 6.9 mph - N/A   Partly Cloudy
10:20 AM 62.6 °F 48.2 °F 59% 29.83 in 6.2 mi South 6.9 mph - N/A   Partly Cloudy
10:50 AM 62.6 °F 46.4 °F 55% 29.83 in 6.2 mi SW 8.1 mph - N/A   Partly Cloudy
11:00 AM 63 °F 47 °F 44% 29.86 in 6 mi SW 8.1 mph - -   Scattered Clouds
11:20 AM 62.6 °F 44.6 °F 52% 29.83 in 6.2 mi West 8.1 mph - N/A   Partly Cloudy
11:50 AM 64.4 °F 46.4 °F 52% 29.86 in 6.2 mi West 6.9 mph - N/A   Partly Cloudy
12:20 PM 64.4 °F 46.4 °F 52% 29.86 in 6.2 mi North 9.2 mph - N/A   Partly Cloudy
12:50 PM 62.6 °F 48.2 °F 59% 29.86 in 6.2 mi NNW 13.8 mph - N/A   Mostly Cloudy
1:20 PM 62.6 °F 48.2 °F 59% 29.86 in 6.2 mi NW 18.4 mph - N/A   Mostly Cloudy
1:50 PM 60.8 °F 50.0 °F 68% 29.86 in 6.2 mi WNW 13.8 mph - N/A   Mostly Cloudy
2:00 PM 61 °F 51 °F 60% 29.87 in 6 mi WNW 13.8 mph - -   Mostly Cloudy
2:20 PM 60.8 °F 50.0 °F 68% 29.86 in 6.2 mi NW 13.8 mph - N/A   Scattered Clouds
2:50 PM 62.6 °F 48.2 °F 59% 29.86 in 6.2 mi NW 16.1 mph - N/A   Scattered Clouds
3:20 PM 60.8 °F 50.0 °F 68% 29.86 in 6.2 mi NW 16.1 mph - N/A   Scattered Clouds
3:50 PM 60.8 °F 50.0 °F 68% 29.89 in 6.2 mi NW 11.5 mph - N/A   Scattered Clouds
4:20 PM 60.8 °F 50.0 °F 68% 29.89 in 6.2 mi WNW 15.0 mph - N/A   Scattered Clouds
4:50 PM 60.8 °F 50.0 °F 68% 29.89 in 6.2 mi NW 15.0 mph - N/A   Scattered Clouds
5:00 PM 60 °F 50 °F 61% 29.91 in 12 mi NW 15.0 mph - -   Partly Cloudy
5:20 PM 60.8 °F 50.0 °F 68% 29.89 in 6.2 mi WNW 18.4 mph - N/A   Scattered Clouds
5:50 PM 57.2 °F 48.2 °F 72% 29.92 in 6.2 mi West 13.8 mph - N/A   Scattered Clouds
6:20 PM 57.2 °F 48.2 °F 72% 29.92 in 6.2 mi West 11.5 mph - N/A   Scattered Clouds
6:50 PM 55.4 °F 46.4 °F 72% 29.95 in 6.2 mi West 6.9 mph - N/A   Scattered Clouds
7:20 PM 55.4 °F 46.4 °F 72% 29.95 in 6.2 mi West 5.8 mph - N/A   Scattered Clouds
7:50 PM 55.4 °F 44.6 °F 67% 29.98 in 6.2 mi South 5.8 mph - N/A   Scattered Clouds
8:00 PM 55 °F 45 °F 60% 30.00 in 9 mi South 5.8 mph - -   Partly Cloudy
8:20 PM 55.4 °F 44.6 °F 67% 29.98 in 6.2 mi SSW 6.9 mph - N/A   Scattered Clouds
8:50 PM 51.8 °F 44.6 °F 76% 30.01 in 6.2 mi South 6.9 mph - N/A   Scattered Clouds
9:20 PM 51.8 °F 44.6 °F 76% 30.01 in 6.2 mi South 6.9 mph - N/A   Scattered Clouds
9:50 PM 51.8 °F 44.6 °F 76% 30.04 in 6.2 mi South 6.9 mph - N/A   Scattered Clouds
10:20 PM 51.8 °F 44.6 °F 76% 30.04 in 6.2 mi South 5.8 mph - N/A   Scattered Clouds
11:00 PM 50 °F 44 °F 73% 30.05 in 6 mi South 8.1 mph - -   Partly Cloudy
11:20 PM 50.0 °F 44.6 °F 82% 30.04 in 6.2 mi South 8.1 mph - N/A   Scattered Clouds
11:50 PM 50.0 °F 44.6 °F 82% 30.06 in 6.2 mi South 11.5 mph - N/A   Scattered Clouds